timestamp,surface_pressure_avg,surface_temp_avg,battery_voltage,lat,long
2021-12-31 00:09:00+00:00,270.4531,3.79,12.65,47.84626,-54.09684
2021-12-31 00:19:00+00:00,265.4564,3.77,12.65,47.84626,-54.09684
2021-12-31 00:29:00+00:00,258.8181,3.76,12.65,47.84626,-54.09684
2021-12-31 00:39:00+00:00,251.5881,3.74,12.65,47.84626,-54.09684
2021-12-31 00:49:00+00:00,241.4997,3.7,12.65,47.84626,-54.09684
2021-12-31 00:59:00+00:00,231.1598,3.7,12.65,47.84626,-54.09684
2021-12-31 01:09:00+00:00,224.8198,3.69,12.65,47.84626,-54.09684
2021-12-31 01:19:00+00:00,221.6548,3.69,12.65,47.84626,-54.09684
2021-12-31 01:29:00+00:00,213.0865,3.68,12.65,47.84626,-54.09684
2021-12-31 01:39:00+00:00,204.1864,3.69,12.65,47.84626,-54.09684
2021-12-31 01:49:00+00:00,205.4048,3.7,12.65,47.84626,-54.09684
2021-12-31 01:59:00+00:00,207.7513,3.7,12.65,47.84626,-54.09684
2021-12-31 02:09:00+00:00,205.3665,3.7,12.65,47.84626,-54.09684
2021-12-31 02:19:01+00:00,203.6931,3.7,12.57,47.84626,-54.09684
2021-12-31 02:29:01+00:00,203.2381,3.7,12.57,47.84626,-54.09684
2021-12-31 02:39:01+00:00,199.2498,3.7,12.57,47.84626,-54.09684
2021-12-31 02:49:01+00:00,195.1232,3.73,12.57,47.84626,-54.09684
2021-12-31 02:59:01+00:00,194.9532,3.7,12.57,47.84626,-54.09684
2021-12-31 03:09:01+00:00,199.2047,3.7,12.57,47.84626,-54.09684
2021-12-31 03:19:00+00:00,201.9716,3.7,12.57,47.84626,-54.09684
2021-12-31 03:29:00+00:00,203.8282,3.7,12.57,47.84626,-54.09684
2021-12-31 03:39:00+00:00,209.9114,3.7,12.57,47.84626,-54.09684
2021-12-31 03:49:00+00:00,218.7697,3.7,12.57,47.84626,-54.09684
2021-12-31 03:59:00+00:00,222.3064,3.67,12.57,47.84626,-54.09684
2021-12-31 04:09:00+00:00,224.6147,3.6,12.57,47.84626,-54.09684
2021-12-31 04:19:00+00:00,225.6548,3.6,12.57,47.84626,-54.09684
2021-12-31 04:29:00+00:00,228.5264,3.62,12.57,47.84626,-54.09684
2021-12-31 04:39:00+00:00,236.1964,3.7,12.57,47.84626,-54.09684
2021-12-31 04:49:00+00:00,243.183,3.7,12.57,47.84626,-54.09684
2021-12-31 04:59:00+00:00,242.7148,3.6,12.57,47.84626,-54.09684
2021-12-31 05:09:00+00:00,242.7148,3.6,12.57,47.84626,-54.09684
2021-12-31 05:19:00+00:00,249.6281,3.6,12.57,47.84626,-54.09684
2021-12-31 05:29:00+00:00,256.0131,3.7,12.57,47.84626,-54.09684
2021-12-31 05:39:00+00:00,263.0697,3.8,12.57,47.84626,-54.09684
2021-12-31 05:49:00+00:00,276.6631,3.8,12.57,47.84626,-54.09684
2021-12-31 05:59:00+00:00,285.0814,3.8,12.57,47.84626,-54.09684
2021-12-31 06:09:00+00:00,290.7513,3.8,12.57,47.84626,-54.09684
2021-12-31 06:19:01+00:00,298.9113,3.81,12.57,47.84626,-54.09684
2021-12-31 06:29:01+00:00,310.1329,3.88,12.57,47.84626,-54.09684
2021-12-31 06:39:01+00:00,313.7162,3.89,12.57,47.84626,-54.09684
2021-12-31 06:49:01+00:00,320.3013,3.89,12.57,47.84626,-54.09684
2021-12-31 06:59:01+00:00,331.8979,3.9,12.57,47.84626,-54.09684
2021-12-31 07:09:01+00:00,340.4146,3.9,12.57,47.84626,-54.09684
2021-12-31 07:19:01+00:00,340.7963,3.9,12.49,47.84626,-54.09684
2021-12-31 07:29:01+00:00,346.6746,3.9,12.49,47.84626,-54.09684
2021-12-31 07:39:01+00:00,353.7196,3.9,12.49,47.84626,-54.09684
2021-12-31 07:49:01+00:00,356.1678,3.9,12.49,47.84626,-54.09684
2021-12-31 07:59:01+00:00,356.4129,3.9,12.49,47.84626,-54.09684
2021-12-31 08:09:01+00:00,363.5713,3.9,12.49,47.84626,-54.09684
2021-12-31 08:19:01+00:00,367.6111,3.9,12.49,47.84626,-54.09684
2021-12-31 08:29:01+00:00,360.4463,3.9,12.49,47.84626,-54.09684
2021-12-31 08:39:01+00:00,361.8262,3.9,12.49,47.84626,-54.09684
2021-12-31 08:49:01+00:00,368.2029,3.9,12.49,47.84626,-54.09684
2021-12-31 08:59:01+00:00,368.6246,3.92,12.49,47.84626,-54.09684
2021-12-31 09:09:01+00:00,367.0513,3.9,12.49,47.84626,-54.09684
2021-12-31 09:19:00+00:00,368.7997,3.86,12.49,47.84626,-54.09684
2021-12-31 09:29:00+00:00,371.2429,3.9,12.49,47.84626,-54.09684
2021-12-31 09:39:00+00:00,368.1911,3.9,12.49,47.84626,-54.09684
2021-12-31 09:49:00+00:00,370.6229,3.9,12.49,47.84626,-54.09684
2021-12-31 09:59:00+00:00,373.7479,3.9,12.49,47.84626,-54.09684
2021-12-31 10:09:00+00:00,370.1414,3.9,12.49,47.84626,-54.09684
2021-12-31 10:19:00+00:00,367.8662,3.8,12.49,47.84626,-54.09684
2021-12-31 10:29:00+00:00,367.1196,3.79,12.49,47.84626,-54.09684
2021-12-31 10:39:00+00:00,363.7664,3.7,12.49,47.84626,-54.09684
2021-12-31 10:49:00+00:00,360.1363,3.6,12.49,47.84626,-54.09684
2021-12-31 10:59:00+00:00,356.3914,3.6,12.49,47.84626,-54.09684
2021-12-31 11:09:00+00:00,351.9613,3.59,12.49,47.84626,-54.09684
2021-12-31 11:19:01+00:00,343.4196,3.5,12.49,47.84626,-54.09684
2021-12-31 11:29:01+00:00,333.9879,3.49,12.49,47.84626,-54.09684
2021-12-31 11:39:01+00:00,328.1096,3.48,12.49,47.84626,-54.09684
2021-12-31 11:49:01+00:00,320.478,3.5,12.49,47.84626,-54.09684
2021-12-31 11:59:01+00:00,311.6014,3.4,12.49,47.84626,-54.09684
2021-12-31 12:09:01+00:00,304.778,3.4,12.49,47.84626,-54.09684
2021-12-31 12:19:00+00:00,300.0797,3.4,12.49,47.84626,-54.09684
2021-12-31 12:29:00+00:00,290.6914,3.42,12.49,47.84626,-54.09684
2021-12-31 12:39:00+00:00,280.8014,3.41,12.49,47.84626,-54.09684
2021-12-31 12:49:00+00:00,274.4864,3.67,12.49,47.84626,-54.09684
2021-12-31 12:59:00+00:00,267.3648,3.6,12.49,47.84626,-54.09684
2021-12-31 13:09:00+00:00,258.4047,3.6,12.49,47.84626,-54.09684
2021-12-31 13:19:01+00:00,252.3964,3.6,12.57,47.84626,-54.09684
2021-12-31 13:29:01+00:00,249.7647,3.6,12.57,47.84626,-54.09684
2021-12-31 13:39:01+00:00,242.7598,3.6,12.57,47.84626,-54.09684
2021-12-31 13:49:01+00:00,235.3798,3.6,12.57,47.84626,-54.09684
2021-12-31 13:59:01+00:00,235.3815,3.6,12.57,47.84626,-54.09684
2021-12-31 14:09:01+00:00,234.8997,3.6,12.57,47.84626,-54.09684
2021-12-31 14:19:00+00:00,226.5631,3.6,12.97,47.84626,-54.09684
2021-12-31 14:29:00+00:00,218.4064,3.58,12.97,47.84626,-54.09684
2021-12-31 14:39:00+00:00,217.1698,3.5,12.97,47.84626,-54.09684
2021-12-31 14:49:00+00:00,211.3348,3.4,12.97,47.84626,-54.09684
2021-12-31 14:59:00+00:00,202.3648,3.44,12.97,47.84626,-54.09684
2021-12-31 15:09:00+00:00,200.1381,3.5,12.97,47.84626,-54.09684
2021-12-31 15:19:00+00:00,202.3648,3.5,13.21,47.84626,-54.09684
2021-12-31 15:29:00+00:00,199.2082,3.5,13.21,47.84626,-54.09684
2021-12-31 15:39:00+00:00,196.1747,3.54,13.21,47.84626,-54.09684
2021-12-31 15:49:00+00:00,204.4798,3.55,13.21,47.84626,-54.09684
2021-12-31 15:59:00+00:00,213.0981,3.56,13.21,47.84626,-54.09684
2021-12-31 16:09:00+00:00,209.6781,3.58,13.21,47.84626,-54.09684
2021-12-31 16:19:00+00:00,207.0081,3.56,13.53,47.84626,-54.09684
2021-12-31 16:29:00+00:00,214.4814,3.57,13.53,47.84626,-54.09684
2021-12-31 16:39:00+00:00,214.7048,3.59,13.53,47.84626,-54.09684
2021-12-31 16:49:00+00:00,205.4231,3.6,13.53,47.84626,-54.09684
2021-12-31 16:59:00+00:00,208.1864,3.6,13.53,47.84626,-54.09684
2021-12-31 17:09:00+00:00,218.1414,3.6,13.53,47.84626,-54.09684
2021-12-31 17:19:01+00:00,218.7047,3.6,14.0,47.84626,-54.09684
2021-12-31 17:29:01+00:00,220.8898,3.6,14.0,47.84626,-54.09684
2021-12-31 17:39:01+00:00,230.583,3.6,14.0,47.84626,-54.09684
2021-12-31 17:49:01+00:00,234.4331,3.6,14.0,47.84626,-54.09684
2021-12-31 17:59:01+00:00,230.6864,3.57,14.0,47.84626,-54.09684
2021-12-31 18:09:01+00:00,233.7731,3.59,14.0,47.84626,-54.09684
2021-12-31 18:19:00+00:00,243.3031,3.59,14.56,47.84626,-54.09684
2021-12-31 18:29:00+00:00,247.7631,3.6,14.56,47.84626,-54.09684
2021-12-31 18:39:00+00:00,249.4131,3.67,14.56,47.84626,-54.09684
2021-12-31 18:49:00+00:00,255.6047,3.69,14.56,47.84626,-54.09684
2021-12-31 18:59:00+00:00,266.1297,3.7,14.56,47.84626,-54.09684
2021-12-31 19:09:00+00:00,274.2181,3.69,14.56,47.84626,-54.09684
2021-12-31 19:19:00+00:00,280.0847,3.67,14.08,47.84626,-54.09684
2021-12-31 19:29:00+00:00,291.2047,3.67,14.08,47.84626,-54.09684
2021-12-31 19:39:00+00:00,301.5063,3.6,14.08,47.84626,-54.09684
2021-12-31 19:49:00+00:00,305.3081,3.5,14.08,47.84626,-54.09684
2021-12-31 19:59:00+00:00,309.0197,3.5,14.08,47.84626,-54.09684
2021-12-31 20:09:00+00:00,319.1196,3.57,14.08,47.84626,-54.09684
2021-12-31 20:19:00+00:00,324.3214,3.6,13.53,47.84626,-54.09684
2021-12-31 20:29:00+00:00,326.0762,3.64,13.53,47.84626,-54.09684
2021-12-31 20:39:00+00:00,332.0763,3.6,13.53,47.84626,-54.09684
2021-12-31 20:49:00+00:00,339.0364,3.68,13.53,47.84626,-54.09684
2021-12-31 20:59:00+00:00,339.4496,3.7,13.53,47.84626,-54.09684
2021-12-31 21:09:00+00:00,336.73800000000006,3.6,13.53,47.84626,-54.09684
2021-12-31 21:19:00+00:00,338.523,3.6,13.13,47.84626,-54.09684
2021-12-31 21:29:00+00:00,342.3279,3.84,13.13,47.84626,-54.09684
2021-12-31 21:39:00+00:00,342.8896,3.9,13.13,47.84626,-54.09684
2021-12-31 21:49:00+00:00,345.2496,3.97,13.13,47.84626,-54.09684
2021-12-31 21:59:00+00:00,351.5696,3.93,13.13,47.84626,-54.09684
2021-12-31 22:09:00+00:00,354.5328,3.9,13.13,47.84626,-54.09684
2021-12-31 22:19:00+00:00,355.1495,3.9,12.81,47.84626,-54.09684
2021-12-31 22:29:00+00:00,357.7897,3.9,12.81,47.84626,-54.09684
2021-12-31 22:39:00+00:00,358.9946,3.89,12.81,47.84626,-54.09684
2021-12-31 22:49:00+00:00,353.798,3.87,12.81,47.84626,-54.09684
2021-12-31 22:59:00+00:00,346.7513,3.88,12.81,47.84626,-54.09684
2021-12-31 23:09:00+00:00,344.1529,3.89,12.81,47.84626,-54.09684
2021-12-31 23:19:00+00:00,339.2562,3.89,12.65,47.84626,-54.09684
2021-12-31 23:29:00+00:00,332.7729,3.89,12.65,47.84626,-54.09684
2021-12-31 23:39:00+00:00,326.7979,3.86,12.65,47.84626,-54.09684
2021-12-31 23:49:00+00:00,325.168,3.8,12.65,47.84626,-54.09684
2021-12-31 23:59:00+00:00,321.243,3.8,12.65,47.84626,-54.09684
